カタログに戻る

STARLINK-35678

運用中通信VLEO
NORAD 66971·PAYLOAD·🇺🇸 United States

打ち上げ Dec 8, 2025 から Cape Canaveral Space Force Station

Loading…

次のパス (今後24時間)

TLE

最新Source: CelesTrak SupGP

元期: Sep 15, 2026, 03:28 UTC

1 66971C 25288N   26258.14493056 -.00006554  00000+0 -23739-3 0  2585
2 66971  43.0042  33.4989 0001472 265.8490  42.8085 15.27583746    14

AllMySatでSTARLINK-35678をリアルタイム追跡

Download on the App Store